EW9066 Weather Reports


time (UTC)temp
F
wind
direction
speed
knots
gust
knots
rain 1hr
in
rain 24hr
in
rain mn
in
humidity
%
barometer
mb
20260506124540 22 200 0.0 0.0 0.00 0.00 0.00 85 1018.2
20260506123045 22 200 0.0 0.0 0.00 0.00 0.00 86 1018.1
20260506121550 21 200 0.0 0.0 0.00 0.00 0.00 86 1018.2
20260506120039 21 200 0.0 0.0 0.00 0.00 0.00 85 1018.3
20260506114538 23 200 0.0 0.0 0.00 0.00 0.00 86 1018.3
20260506113039 22 200 0.0 0.0 0.00 0.00 0.00 86 1018.5
20260506111536 22 200 0.0 0.0 0.00 0.00 0.00 85 1018.7
20260506110041 23 200 0.0 0.0 0.00 0.00 0.00 83 1018.8
20260506104532 23 200 0.0 0.0 0.00 0.00 0.00 82 1018.8
20260506103032 23 200 0.0 0.0 0.00 0.00 0.00 81 1019.0
20260506101534 24 200 0.0 0.0 0.00 0.00 0.00 81 1018.9
20260506100030 25 200 0.0 0.0 0.00 0.00 0.00 81 1019.1
20260506094528 25 200 0.0 1.7 0.00 0.00 0.00 80 1019.2
20260506093032 25 201 0.0 0.0 0.00 0.00 0.00 81 1019.3
20260506091526 26 201 0.0 0.0 0.00 0.00 0.00 81 1019.5
20260506090024 26 201 0.0 0.0 0.00 0.00 0.00 81 1019.6
20260506084523 26 201 0.0 0.0 0.00 0.00 0.00 82 1019.6
20260506083029 26 201 0.0 0.0 0.00 0.00 0.00 80 1019.6
20260506081521 27 201 0.0 0.0 0.00 0.00 0.00 79 1019.7
20260506073016 28 360 0.0 0.9 0.00 0.00 0.00 79 1020.0
20260506071518 29 360 0.0 0.9 0.00 0.00 0.00 78 1020.0
20260506061506 30 215 0.0 0.9 0.00 0.00 0.00 75 1019.9
20260506044600 32 272 0.0 0.0 0.00 0.00 0.00 70 1019.7
20260506043107 32 272 0.0 0.0 0.00 0.00 0.00 68 1019.8
20260506041559 33 272 0.0 0.0 0.00 0.00 0.00 67 1019.8
20260506040056 34 272 0.0 0.9 0.00 0.00 0.00 65 1019.9
20260506034611 35 272 0.9 2.6 0.00 0.00 0.00 65 1019.8
20260506033051 35 275 0.0 2.6 0.00 0.00 0.00 66 1019.7
20260506031553 36 279 0.0 1.7 0.00 0.00 0.00 63 1019.6
20260506030045 39 279 0.0 0.9 0.00 0.00 0.00 60 1019.5
20260506024550 40 279 0.0 3.5 0.00 0.00 0.00 58 1019.4
20260506023044 41 9 1.7 4.3 0.00 0.00 0.00 57 1019.3
20260506021539 42 11 0.9 4.3 0.00 0.00 0.00 54 1019.2
20260506020036 43 11 1.7 3.5 0.00 0.00 0.00 45 1019.4
20260506014534 44 15 0.9 5.2 0.00 0.00 0.00 41 1019.2
20260506013034 44 103 1.7 14.8 0.00 0.00 0.00 41 1019.2
20260506011534 45 344 4.3 13.0 0.00 0.00 0.00 37 1019.2
20260506010048 45 342 3.5 8.7 0.00 0.00 0.00 44 1019.1
20260506004531 45 351 7.8 15.6 0.00 0.00 0.00 43 1019.1
20260506003026 46 360 13.9 22.6 0.00 0.00 0.00 42 1018.9
20260506001529 48 347 6.1 13.0 0.00 0.00 0.00 35 1018.8
20260506000022 48 344 7.8 16.5 0.00 0.00 0.00 34 1018.7
20260505234521 49 346 7.0 10.4 0.00 0.00 0.00 33 1018.6
20260505233018 48 329 7.8 13.0 0.00 0.00 0.00 36 1018.6
20260505231517 47 346 10.4 15.6 0.00 0.00 0.00 40 1018.8
20260505230024 47 325 7.0 13.0 0.00 0.00 0.00 43 1018.7
20260505224516 47 304 4.3 9.6 0.00 0.00 0.00 39 1018.7
20260505223017 47 360 4.3 7.8 0.00 0.00 0.00 39 1018.7
20260505221518 46 338 4.3 13.9 0.00 0.00 0.00 42 1018.7
20260505220019 45 273 6.1 13.9 0.00 0.00 0.00 46 1018.7
20260505214517 46 347 11.3 22.6 0.00 0.00 0.00 49 1018.8
20260505213023 45 10 7.0 17.4 0.00 0.00 0.00 60 1018.9
20260505211520 46 325 8.7 13.9 0.00 0.00 0.00 45 1018.9
20260505210018 45 360 3.5 7.0 0.00 0.00 0.00 47 1019.0
20260505204515 43 5 1.7 11.3 0.00 0.00 0.00 51 1019.3
20260505203026 45 345 10.4 16.5 0.00 0.00 0.00 47 1019.2
20260505201514 45 319 6.1 12.2 0.00 0.00 0.00 47 1019.2
20260505200012 45 348 9.6 15.6 0.00 0.00 0.00 52 1019.4
20260505194511 45 360 7.0 12.2 0.00 0.00 0.00 54 1019.3
20260505193010 44 5 7.0 11.3 0.00 0.00 0.00 55 1019.5
20260505191510 43 345 6.1 12.2 0.00 0.00 0.00 60 1019.6
20260505190009 42 350 7.8 13.0 0.00 0.00 0.00 62 1019.5
20260505184509 42 327 6.1 11.3 0.00 0.00 0.00 65 1019.5
20260505183008 40 284 5.2 9.6 0.00 0.00 0.00 70 1019.6
20260505181509 40 316 5.2 10.4 0.00 0.00 0.00 63 1019.6
20260505180008 42 347 8.7 14.8 0.00 0.00 0.00 63 1019.5
20260505174508 41 333 7.8 13.9 0.00 0.00 0.00 67 1019.4
20260505173008 41 313 5.2 8.7 0.00 0.00 0.00 68 1019.3
20260505171506 40 348 6.1 10.4 0.00 0.00 0.00 73 1019.3
20260505170009 39 325 5.2 11.3 0.00 0.00 0.00 76 1019.3
20260505164502 40 347 8.7 13.9 0.00 0.00 0.00 68 1019.3
20260505163005 40 5 4.3 9.6 0.00 0.00 0.00 65 1019.1
20260505161502 39 347 6.1 8.7 0.00 0.00 0.00 68 1019.2
20260505153100 37 59 0.9 4.3 0.00 0.00 0.00 76 1019.3
20260505151614 38 63 0.0 6.1 0.00 0.00 0.00 76 1019.5
20260505124549 33 104 0.9 5.2 0.00 0.00 0.00 60 1018.1